| time (UTC) | temp C | wind direction | speed KPH | gust KPH | rain 1hr cm | rain 24hr cm | rain mn cm | humidity % | barometer mb |
| 20260504050001 | 15 | 194 | 4.8 | 6.4 | 0.00 | 0.00 | 0.00 | 58 | 1002.7 |
| 20260504044502 | 15 | 186 | 4.8 | 4.8 | 0.00 | 0.00 | 0.00 | 58 | 1002.7 |
| 20260504043002 | 15 | 182 | 6.4 | 8.0 | 0.00 | 0.00 | 0.00 | 58 | 1002.7 |
| 20260504041501 | 15 | 180 | 8.0 | 9.7 | 0.00 | 0.00 | 0.00 | 58 | 1002.7 |
| 20260504040001 | 13 | 175 | 4.8 | 6.4 | 0.00 | 0.00 | 0.00 | 59 | 1002.7 |
| 20260504034501 | 13 | 180 | 3.2 | 4.8 | 0.00 | 0.00 | 0.00 | 59 | 1002.7 |
| 20260504033002 | 13 | 181 | 4.8 | 4.8 | 0.00 | 0.00 | 0.00 | 58 | 1002.7 |
| 20260504031502 | 13 | 197 | 4.8 | 4.8 | 0.00 | 0.00 | 0.00 | 58 | 1002.7 |
| 20260504030001 | 15 | 186 | 6.4 | 8.0 | 0.00 | 0.00 | 0.00 | 57 | 1002.7 |
| 20260504024502 | 15 | 170 | 4.8 | 6.4 | 0.00 | 0.00 | 0.00 | 57 | 1002.7 |
| 20260504023002 | 15 | 173 | 4.8 | 4.8 | 0.00 | 0.00 | 0.00 | 56 | 1002.7 |
| 20260504021502 | 15 | 176 | 4.8 | 4.8 | 0.00 | 0.00 | 0.00 | 56 | 1002.7 |
| 20260504020001 | 15 | 190 | 4.8 | 6.4 | 0.00 | 0.00 | 0.00 | 57 | 1002.7 |
| 20260504014501 | 15 | 178 | 6.4 | 6.4 | 0.00 | 0.00 | 0.00 | 56 | 1003.0 |
| 20260504013001 | 15 | 174 | 4.8 | 4.8 | 0.00 | 0.00 | 0.00 | 55 | 1003.0 |
| 20260504011502 | 15 | 205 | 8.0 | 8.0 | 0.00 | 0.00 | 0.00 | 54 | 1003.0 |
| 20260504010001 | 15 | 183 | 9.7 | 12.9 | 0.00 | 0.00 | 0.00 | 53 | 1003.0 |
| 20260504004501 | 15 | 187 | 9.7 | 11.3 | 0.00 | 0.00 | 0.00 | 53 | 1003.0 |
| 20260504003001 | 15 | 171 | 4.8 | 8.0 | 0.00 | 0.00 | 0.00 | 52 | 1003.0 |
| 20260504001502 | 15 | 216 | 6.4 | 6.4 | 0.00 | 0.00 | 0.00 | 52 | 1003.0 |
| 20260504000001 | 16 | 172 | 4.8 | 6.4 | 0.00 | 0.00 | 0.00 | 51 | 1003.0 |
| 20260503234501 | 16 | 187 | 6.4 | 8.0 | 0.00 | 0.00 | 0.00 | 50 | 1003.0 |
| 20260503233001 | 16 | 171 | 4.8 | 6.4 | 0.00 | 0.00 | 0.00 | 49 | 1003.0 |
| 20260503231501 | 16 | 186 | 4.8 | 6.4 | 0.00 | 0.00 | 0.00 | 48 | 1003.0 |
| 20260503230001 | 16 | 192 | 8.0 | 8.0 | 0.00 | 0.00 | 0.00 | 47 | 1003.0 |
| 20260503224501 | 16 | 155 | 4.8 | 6.4 | 0.00 | 0.00 | 0.00 | 47 | 1003.0 |
| 20260503223000 | 16 | 170 | 4.8 | 6.4 | 0.00 | 0.00 | 0.00 | 46 | 1003.0 |
| 20260503221502 | 17 | 183 | 4.8 | 4.8 | 0.00 | 0.00 | 0.00 | 45 | 1003.0 |
| 20260503220002 | 17 | 190 | 4.8 | 4.8 | 0.00 | 0.00 | 0.00 | 43 | 1003.0 |
| 20260503214501 | 17 | 155 | 4.8 | 4.8 | 0.00 | 0.00 | 0.00 | 42 | 1003.0 |
| 20260503213001 | 18 | 169 | 4.8 | 4.8 | 0.00 | 0.00 | 0.00 | 42 | 1003.0 |
| 20260503210001 | 18 | 151 | 3.2 | 4.8 | 0.00 | 0.00 | 0.00 | 40 | 1003.0 |
| 20260503204502 | 18 | 171 | 1.6 | 4.8 | 0.00 | 0.00 | 0.00 | 40 | 1003.0 |
| 20260503203002 | 20 | 173 | 4.8 | 4.8 | 0.00 | 0.00 | 0.00 | 39 | 1003.0 |
| 20260503201502 | 20 | 144 | 3.2 | 4.8 | 0.00 | 0.00 | 0.00 | 38 | 1003.0 |
| 20260503200002 | 20 | 186 | 6.4 | 6.4 | 0.00 | 0.00 | 0.00 | 37 | 1003.0 |
| 20260503194502 | 20 | 172 | 3.2 | 4.8 | 0.00 | 0.00 | 0.00 | 37 | 1003.0 |
| 20260503193001 | 20 | 138 | 1.6 | 4.8 | 0.00 | 0.00 | 0.00 | 36 | 1003.0 |
| 20260503191501 | 20 | 167 | 3.2 | 4.8 | 0.00 | 0.00 | 0.00 | 36 | 1003.0 |
| 20260503190002 | 20 | 145 | 1.6 | 1.6 | 0.00 | 0.00 | 0.00 | 36 | 1003.0 |
| 20260503184502 | 20 | 131 | 0.0 | 0.0 | 0.00 | 0.00 | 0.00 | 36 | 1003.0 |
| 20260503183001 | 21 | 161 | 1.6 | 1.6 | 0.00 | 0.00 | 0.00 | 33 | 1003.0 |
| 20260503181502 | 22 | 170 | 3.2 | 4.8 | 0.00 | 0.00 | 0.00 | 32 | 1003.0 |
| 20260503180001 | 23 | 148 | 1.6 | 3.2 | 0.00 | 0.00 | 0.00 | 30 | 1003.0 |
| 20260503174502 | 23 | 169 | 4.8 | 6.4 | 0.00 | 0.00 | 0.00 | 30 | 1003.0 |
| 20260503173000 | 25 | 197 | 6.4 | 9.7 | 0.00 | 0.00 | 0.00 | 27 | 1003.0 |
| 20260503171501 | 25 | 168 | 4.8 | 4.8 | 0.00 | 0.00 | 0.00 | 26 | 1003.0 |
| 20260503081501 | 23 | 194 | 6.4 | 8.0 | 0.00 | 0.00 | 0.00 | 36 | 1006.7 |
| 20260503071501 | 20 | 201 | 9.7 | 11.3 | 0.00 | 0.00 | 0.00 | 41 | 1007.4 |